Voltar ao catálogo

COSMOS 374 DEB *

AtivoLEO
NORAD 5028·DEBRIS·🇷🇺 Russia

Lançado Oct 23, 1970 de Baikonur Cosmodrome

Loading…

Próximas Passagens

TLE

Source: Space-Track
1  5028U 70089Z   26224.98360052  .00000157  00000-0  22500-3 0  9993
2  5028  63.3101 109.1802 0647084 297.2978  56.3565 13.13896497614119

Acompanhe COSMOS 374 DEB * em tempo real com AllMySat

Download on the App Store